Tracking 19795 objects as of 20-Jul-2019
HD Live streaming from Space Station
objects crossing your sky now

WIRE


WIRE is no longer on orbit
WIRE is classified as:


NORAD ID: 25646
Int'l Code: 1999-011A
Perigee: N/A
Apogee: N/A
Inclination: N/A
Period: N/A
Semi major axis: N/A
RCS: N/A
Launch date: March 5, 1999
Source: United States (US)
Launch site: Pegasus launched from Western Range Air Space (WRAS)
Decay date: 2011-05-10
aabbcc
Your satellite tracking list
Your tracking list is empty




NASA's NSSDC Master Catalog

Two Line Element Set (TLE):
1 25646U 99011A   11130.21694826  .32787649  27057-5  24659-3 0  9998
2 25646 097.2373 069.0355 0009444 231.5077 128.8522 16.52763843683505
Source of the keplerian elements: AFSPC